Location: Limerick
(52.6650°N, 8.6230°W)
Time: 20:47:32
(UTC+00:00)

Envisat - Visible Passes

Search period start: 12 November 2019 00:00
Search period end: 22 November 2019 00:00
Orbit: 764 x 766 km, 98.1° (Epoch: 12 November)

Date Brightness Start Highest point End Pass type
(mag) Time Alt. Az. Time Alt. Az. Time Alt. Az.
12 Nov 4.7 06:59:13 10° NNE 07:03:59 39° E 07:08:43 10° SSE visible
12 Nov 3.0 18:19:31 10° SSE 18:24:36 88° ENE 18:29:44 10° NNW visible
12 Nov 5.8 20:01:13 10° SW 20:04:21 16° W 20:07:31 10° NW visible
13 Nov 5.8 06:23:05 10° NE 06:26:52 21° E 06:30:37 10° SE visible
13 Nov 3.2 17:43:04 10° SE 17:47:55 47° ENE 17:52:48 10° N visible
13 Nov 4.8 19:22:40 10° SSW 19:27:09 31° W 19:31:39 10° NNW visible
14 Nov 6.5 05:48:55 10° ENE 05:49:30 10° E 05:50:07 10° E visible
14 Nov 3.6 18:45:08 10° S 18:50:09 59° W 18:55:12 10° NNW visible
15 Nov 5.1 06:48:04 10° NNE 06:52:38 32° E 06:57:09 10° SSE visible
15 Nov 2.9 18:08:16 10° SSE 18:13:20 74° ENE 18:18:26 10° NNW visible
15 Nov 5.6 19:49:16 10° SW 19:52:56 20° W 19:56:37 10° NW visible
16 Nov 6.0 06:12:10 10° NE 06:15:26 17° E 06:18:42 10° SE visible
16 Nov 3.4 17:32:01 10° SE 17:36:43 40° ENE 17:41:26 10° N visible
16 Nov 4.5 19:11:06 10° SSW 19:15:47 37° W 19:20:31 10° NNW visible
17 Nov 4.1 07:13:20 10° NNE 07:18:18 50° E 07:23:14 10° S visible
17 Nov 3.2 18:33:47 10° S 18:38:51 72° WSW 18:43:57 10° NNW visible
17 Nov 6.1 20:16:48 10° WSW 20:18:49 12° W 20:20:51 10° WNW visible
18 Nov 5.4 06:36:58 10° NE 06:41:15 27° E 06:45:30 10° SSE visible
18 Nov 3.0 17:57:06 10° SSE 18:02:06 61° ENE 18:07:07 10° N visible
18 Nov 5.3 19:37:28 10° SW 19:41:31 24° W 19:45:37 10° NW visible
19 Nov 6.1 06:01:24 10° NE 06:04:00 14° E 06:06:35 10° ESE visible
19 Nov 3.6 17:21:01 10° SE 17:25:31 33° ENE 17:30:03 10° N visible
19 Nov 4.1 18:59:35 10° S 19:04:27 45° W 19:09:21 10° NNW visible
20 Nov 4.5 07:02:08 10° NNE 07:06:58 42° E 07:11:46 10° SSE visible
20 Nov 3.0 18:22:28 10° SSE 18:27:34 86° WSW 18:32:41 10° NNW visible
20 Nov 5.9 20:04:29 10° WSW 20:07:22 15° W 20:10:16 10° NW visible
21 Nov 5.7 06:25:55 10° NE 06:29:52 22° E 06:33:46 10° SE visible
21 Nov 3.1 17:45:58 10° SE 17:50:51 51° ENE 17:55:47 10° N visible
21 Nov 5.0 19:25:46 10° SSW 19:30:08 29° W 19:34:33 10° NNW visible
